User: anonymous   Login
Location: Vale
(35.4830°N, 81.3830°W)
Time: 09:19:22
(UTC-04:00)
Language:

Oscar 11 - Orbit

View from above orbital plane
View from above orbital plane
View from above satellite
View from above satellite

Ground track
Ground track

The orbit data is extracted from the following two-line orbital elements,

1 14781U 84021B   15185.17835219  .00000368  00000-0  52364-4 0  9993
2 14781 097.8005 241.8417 0009080 025.2695 334.8961 14.82435708684548
Epoch (UTC): 04 July 2015 04:16:49
Eccentricity: 0.0009080
inclination: 97.8005°
perigee height: 615 km
apogee height: 628 km
right ascension of ascending node: 241.8417°
argument of perigee: 25.2695°
revolutions per day: 14.82435708
mean anomaly at epoch: 334.8961°
orbit number at epoch: 68454

The dashed part of the orbit path shows where the satellite is in the earth's shadow,  

DLR